Weather History for K05U - February, 2013

Change the Weather History Date:

Wednesday, February 27, 2013

  Actual Average Record
Temperature  
Mean Temperature 20 °F -  
Max Temperature 39 °F - - ()
Min Temperature 0 °F - - ()
Degree Days  
Heating Degree Days 46    
Moisture  
Dew Point 6 °F    
Average Humidity 61    
Maximum Humidity 92    
Minimum Humidity 24    
Precipitation  
Precipitation 0.00 in - - ()
Sea Level Pressure  
Sea Level Pressure 30.35 in    
Wind  
Wind Speed 3 mph (South)    
Max Wind Speed 9 mph    
Max Gust Speed -    
Visibility 10 miles    
Events      
T = Trace of Precipitation, MM = Missing Value Source: NWS Daily Summary

Daily Weather History Graph

Daily Weather History Graph

Search for Another Location

Airport or City:

Trip Planner

Search our weather history database for the weather conditions in past years. The results will help you decide how hot, cold, wet, or windy it might be!

Date:

Astronomy

Feb. 27, 2013 Rise Set
Actual Time 6:19 AM PST 5:34 PM PST
Civil Twilight 5:52 AM PST 6:01 PM PST
Nautical Twilight 5:21 AM PST 6:32 PM PST
Astronomical Twilight 4:50 AM PST 7:03 PM PST
Moon 7:59 PM PST (2/27) 6:57 AM PST (2/27)
Length of Visible Light 12h 09m
Length of Day
11h 14m
Waning Gibbous, 96% of the Moon is Illuminated
Feb 27
Waning Gibbous
Mar 4
Last Quarter
Mar 11
New
Mar 19
First Quarter
Mar 27
Full

Hourly Weather History & Observations

Time (PST) Temp. Windchill Dew Point Humidity Pressure Visibility Wind Dir Wind Speed Gust Speed Precip Events Conditions
12:15 AM 6.8 °F -6.9 °F -0.4 °F 72% 30.29 in 10.0 mi South 9.2 mph - N/A   Clear
12:35 AM 6.8 °F -3.5 °F 1.4 °F 79% 30.29 in 10.0 mi South 5.8 mph - N/A   Clear
12:55 AM 5.0 °F - -0.4 °F 78% 30.29 in 10.0 mi Calm Calm - N/A   Clear
1:15 AM 3.2 °F - -0.4 °F 85% 30.29 in 10.0 mi Calm Calm - N/A   Clear
1:35 AM 1.4 °F - -0.4 °F 92% 30.30 in 10.0 mi Calm Calm - N/A   Clear
1:55 AM -0.4 °F - -4.0 °F 85% 30.30 in 10.0 mi Calm Calm - N/A   Clear
2:15 AM 1.4 °F -6.2 °F -2.2 °F 85% 30.30 in 10.0 mi South 3.5 mph - N/A   Clear
2:35 AM -0.4 °F -8.3 °F -4.0 °F 85% 30.30 in 10.0 mi SSW 3.5 mph - N/A   Clear
2:55 AM -0.4 °F -8.3 °F -4.0 °F 85% 30.30 in 10.0 mi SSW 3.5 mph - N/A   Clear
3:35 AM -0.4 °F - -4.0 °F 85% 30.32 in 10.0 mi Calm Calm - N/A   Clear
3:55 AM -0.4 °F - -4.0 °F 85% 30.32 in 10.0 mi Calm Calm - N/A   Clear
4:15 AM -0.4 °F -12.0 °F -4.0 °F 85% 30.33 in 10.0 mi SSW 5.8 mph - N/A   Clear
4:35 AM -0.4 °F -10.4 °F -5.8 °F 78% 30.33 in 10.0 mi SW 4.6 mph - N/A   Clear
4:55 AM -0.4 °F -10.4 °F -5.8 °F 78% 30.33 in 10.0 mi South 4.6 mph - N/A   Clear
5:15 AM -0.4 °F -8.3 °F -2.2 °F 92% 30.34 in 10.0 mi SSE 3.5 mph - N/A   Clear
5:35 AM -0.4 °F - -4.0 °F 85% 30.35 in 10.0 mi Calm Calm - N/A   Scattered Clouds
5:55 AM -0.4 °F - -4.0 °F 85% 30.35 in 10.0 mi Calm Calm - N/A   Scattered Clouds
6:15 AM -0.4 °F - -4.0 °F 85% 30.35 in 10.0 mi Calm Calm - N/A   Clear
6:35 AM 1.4 °F -11.3 °F -2.2 °F 85% 30.35 in 10.0 mi SSW 6.9 mph - N/A   Clear
6:55 AM 6.8 °F -3.5 °F 1.4 °F 79% 30.36 in 10.0 mi South 5.8 mph - N/A   Clear
7:15 AM 10.4 °F 0.8 °F 5.0 °F 79% 30.37 in 10.0 mi South 5.8 mph - N/A   Clear
7:35 AM 14.0 °F 6.5 °F 5.0 °F 67% 30.38 in 10.0 mi SSW 4.6 mph - N/A   Clear
8:15 AM 17.6 °F 9.3 °F 6.8 °F 63% 30.38 in 10.0 mi SSW 5.8 mph - N/A   Clear
8:35 AM 19.4 °F 14.3 °F 8.6 °F 63% 30.39 in 10.0 mi SW 3.5 mph - N/A   Clear
8:55 AM 23.0 °F - 8.6 °F 54% 30.40 in 10.0 mi Calm Calm - N/A   Clear
9:15 AM 23.0 °F - 8.6 °F 54% 30.40 in 10.0 mi Calm Calm - N/A   Clear
9:35 AM 26.6 °F - 10.4 °F 51% 30.40 in 10.0 mi Calm Calm - N/A   Clear
9:55 AM 28.4 °F - 10.4 °F 47% 30.39 in 10.0 mi Calm Calm - N/A   Clear
10:15 AM 28.4 °F 24.6 °F 10.4 °F 47% 30.39 in 10.0 mi South 3.5 mph - N/A   Clear
10:35 AM 28.4 °F 24.6 °F 8.6 °F 43% 30.39 in 10.0 mi South 3.5 mph - N/A   Clear
10:55 AM 30.2 °F - 6.8 °F 37% 30.39 in 10.0 mi Calm Calm - N/A   Clear
11:15 AM 32.0 °F - 8.6 °F 38% 30.39 in 10.0 mi Calm Calm - N/A   Clear
11:35 AM 32.0 °F - 6.8 °F 35% 30.38 in 10.0 mi Calm Calm - N/A   Clear
11:55 AM 33.8 °F - 8.6 °F 35% 30.38 in 10.0 mi Calm Calm - N/A   Clear
12:35 PM 35.6 °F 31.7 °F 8.6 °F 33% 30.37 in 10.0 mi East 4.6 mph - N/A   Clear
12:55 PM 35.6 °F - 6.8 °F 30% 30.36 in 10.0 mi Calm Calm - N/A   Clear
1:15 PM 35.6 °F - 6.8 °F 30% 30.36 in 10.0 mi Calm Calm - N/A   Clear
1:35 PM 37.4 °F - 6.8 °F 28% 30.35 in 10.0 mi Calm Calm - N/A   Clear
1:55 PM 37.4 °F - 6.8 °F 28% 30.35 in 10.0 mi Calm Calm - N/A   Clear
2:15 PM 39.2 °F - 5.0 °F 24% 30.35 in 10.0 mi Calm Calm - N/A   Clear
2:35 PM 39.2 °F - 5.0 °F 24% 30.35 in 10.0 mi Calm Calm - N/A   Clear
2:55 PM 39.2 °F - 6.8 °F 26% 30.35 in 10.0 mi Calm Calm - N/A   Clear
3:15 PM 39.2 °F - 5.0 °F 24% 30.35 in 10.0 mi Calm Calm - N/A   Clear
3:35 PM 39.2 °F - 5.0 °F 24% 30.35 in 10.0 mi Calm Calm - N/A   Clear
3:55 PM 37.4 °F - 5.0 °F 26% 30.34 in 10.0 mi Calm Calm - N/A   Clear
4:15 PM 37.4 °F - 5.0 °F 26% 30.34 in 10.0 mi Calm Calm - N/A   Clear
4:35 PM 37.4 °F - 6.8 °F 28% 30.34 in 10.0 mi Calm Calm - N/A   Clear
4:55 PM 33.8 °F - 10.4 °F 38% 30.34 in 10.0 mi Calm Calm - N/A   Clear
5:15 PM 32.0 °F - 10.4 °F 41% 30.34 in 10.0 mi Calm Calm - N/A   Clear
5:35 PM 30.2 °F - 12.2 °F 47% 30.34 in 10.0 mi Calm Calm - N/A   Clear
5:55 PM 28.4 °F 23.3 °F 14.0 °F 55% 30.34 in 10.0 mi SE 4.6 mph - N/A   Mostly Cloudy
6:15 PM 26.6 °F 22.6 °F 15.8 °F 64% 30.34 in 10.0 mi ESE 3.5 mph - N/A   Overcast
6:35 PM 24.8 °F - 15.8 °F 69% 30.35 in 10.0 mi Calm Calm - N/A   Overcast
6:55 PM 23.0 °F - 15.8 °F 74% 30.35 in 10.0 mi Calm Calm - N/A   Overcast
7:15 PM 23.0 °F - 15.8 °F 74% 30.35 in 10.0 mi Calm Calm - N/A   Mostly Cloudy
7:35 PM 21.2 °F - 14.0 °F 74% 30.35 in 10.0 mi Calm Calm - N/A   Scattered Clouds
7:55 PM 19.4 °F 11.5 °F 14.0 °F 80% 30.35 in 10.0 mi SSW 5.8 mph - N/A   Partly Cloudy
8:15 PM 17.6 °F 10.7 °F 12.2 °F 79% 30.35 in 10.0 mi SSW 4.6 mph - N/A   Mostly Cloudy
8:35 PM 17.6 °F 9.3 °F 14.0 °F 86% 30.36 in 10.0 mi SSW 5.8 mph - N/A   Overcast
8:55 PM 19.4 °F - 14.0 °F 80% 30.36 in 10.0 mi Calm Calm - N/A   Overcast
9:15 PM 17.6 °F 12.3 °F 12.2 °F 79% 30.36 in 10.0 mi South 3.5 mph - N/A   Overcast
10:35 PM 15.8 °F 10.2 °F 10.4 °F 79% 30.37 in 10.0 mi SSW 3.5 mph - N/A   Clear
10:55 PM 14.0 °F 5.1 °F 8.6 °F 79% 30.37 in 10.0 mi South 5.8 mph - N/A   Partly Cloudy
11:15 PM 14.0 °F 5.1 °F 8.6 °F 79% 30.37 in 10.0 mi SSW 5.8 mph - N/A   Partly Cloudy
11:35 PM 15.8 °F 7.2 °F 8.6 °F 73% 30.37 in 10.0 mi SSW 5.8 mph - N/A   Clear
11:55 PM 15.8 °F 6.1 °F 8.6 °F 73% 30.37 in 10.0 mi SSE 6.9 mph - N/A   Clear